Location: ??
(34.9170°N, 135.5016°E)
Time: 09:31:19
(UTC+00:00)

X-37B - Pass Details

Date: 28 January 2021
Orbit: 383 x 391 km, 45.0° (Epoch: 27 February)

Event Time Altitude Azimuth Distance (km) Brightness Sun altitude
Rises 10:06:38 0° 307° (NW) 2,274 5.1 -21.4°
Reaches altitude 10° 10:08:53 10° 320° (NW) 1,419 3.8 -21.9°
Enters shadow 10:10:06 18° 335° (NNW) 1,022 2.9 -22.1°
